{"data":{"norad_id":45424,"epoch":"2026-05-25T02:31:18.391872Z","epoch_age_seconds":63147,"freshness":"FRESH","line1":"1 45424U 20020A   26145.10507398  .00000293  00000+0  78975-3 0  9996","line2":"2 45424  87.8914  25.6634 0001867  76.3193 283.8143 13.11418148299657","mean_motion":13.11418148,"eccentricity":0.0001867,"inclination_deg":87.8914,"raan_deg":25.6634,"arg_perigee_deg":76.3193,"mean_anomaly_deg":283.8143,"bstar":0.00078975,"rev_number":29965,"period_min":109.8047943134,"perigee_km":1216.2599144661,"apogee_km":1219.096191807,"semimajor_km":7595.8150531366,"source":"CELESTRAK","updated_at":"2026-05-25T13:38:22.340593Z"}}